Regional Weather Roundup
Issued by NWS

Home | Current Version | Previous Version | Graphics & Text | Print | Product List | Glossary On
Versions: 1 2 3 4 5 6 7 8 9 10 11 12 13 14 15 16 17 18 19 20 21 22 23 24 25 26 27 28 29 30 31 32 33 34 35 36 37 38 39 40 41 42 43 44 45 46 47 48 49 50
000
ASUS45 KBOI 022310
RWRID

IDAHO REGIONAL WEATHER ROUNDUP
NATIONAL WEATHER SERVICE BOISE ID
500 PM MDT THU JUL 02 2015

NOTE: "FAIR" INDICATES FEW OR NO CLOUDS BELOW 12000 FEET
WITH NO SIGNIFICANT WEATHER AND/OR OBSTRUCTIONS TO VISIBILITY

IDZ012-014-030000-
SOUTHWEST IDAHO


CITY           SKY/WX    TMP DP  RH WIND       PRES   REMARKS
BOISE          SUNNY    103  43  13 NW13      29.91F HX  98
CALDWELL       SUNNY    102  43  13 NW6       29.89F HX  98
MOUNTAIN HOME  SUNNY    104  40  11 NW10G24   29.90F HX  99
$$

IDZ016-017-030000-
SOUTHCENTRAL IDAHO


CITY           SKY/WX    TMP DP  RH WIND       PRES   REMARKS
BURLEY         SUNNY     94  39  14 CALM      30.00F HX  90
JEROME         SUNNY     98  41  14 SW13      29.99F HX  93
TWIN FALLS     SUNNY    100  38  11 N8        29.99F HX  95
$$

IDZ019>023-030000-
SOUTHEAST IDAHO


CITY           SKY/WX    TMP DP  RH WIND       PRES   REMARKS
IDAHO FALLS    SUNNY     95  38  13 NE8       30.05F HX  90
POCATELLO      MOSUNNY   95  40  14 CALM      30.04F HX  91
REXBURG        SUNNY     91  40  16 SW10      30.06F
$$

IDZ006-010-011-018-031-032-030000-
CENTRAL IDAHO MOUNTAINS


CITY           SKY/WX    TMP DP  RH WIND       PRES   REMARKS
MCCALL         SUNNY     91  34  13 VRB3      30.09F
HAILEY         MOSUNNY   91  46  21 SW8       30.08F
STANLEY          N/A     89  37  16 N10       30.20F
SALMON         SUNNY     93  39  15 W5        29.95F
CHALLIS        SUNNY     95  23   7 W5        30.03F
$$

IDZ002-004-006-007-026-030000-
NORTHERN IDAHO


CITY           SKY/WX    TMP DP  RH WIND       PRES   REMARKS
LEWISTON       SUNNY    102  36  10 VRB6      29.88F HX  96
LOWELL           N/A     99  50  19 CALM      29.87F HX  96
COEUR D`ALENE  SUNNY     95  45  17 W3        29.95F HX  91
MULLAN PASS    SUNNY     80  42  25 NW6       30.22F
$$


USA.gov is the U.S. government's official web portal to all federal, state and local government web resources and services.